H-2A R/B (38341 NORAD) Tracking and Keplerian Element Data

This shows tracking and keplerian element data for the satellite.

Feedback or suggestion? Click here.




ElementValue
Catalog38341
NameH-2A R/B
Epoch Orbit37010
Epoch Day80.9245003
Epoch Year2019
RAAN203.3907
Inclination98.4367
Eccentricity0.0054533
Argument of Perigee249.6129
Mean Anonmoly109.922
Mean Motion14.83860251
Decay Rate1.55E-06
L11 38341U 12025E 19080.92450030 .00000155 00000-0 25770-4 0 9996
L22 38341 98.4367 203.3907 0054533 249.6129 109.9220 14.83860251370107

Live tracking and technical data element details for H-2A R/B (NORAD 38341). H-2A R/B can be tracked NOW for your location showing map with azimuth and elevation plus other details from your city location.

Track the satellite on the map from your city or location and see movement details for azimuth, elevation, latitude, longitude, range, height, and movement on the map or in text.







IsCatalogInMostPopularTable: catalog: 38341, numindb: 210
Update: records affected: 1



GetName: 38341 H-2A R/B

Hit Count: updated at: Sat, 23 Mar 2019 02:30:10 GMT